Location: eljas
(40.1958°N, 6.8661°W)
Time: 12:24:37
(UTC+01:00)

ISS - All Passes

Search period start: 22 December 2014 00:00
Search period end: 01 January 2015 00:00
Orbit: 404 x 414 km, 51.6° (Epoch: 22 December)

Date Brightness Start Highest point End Pass type
(mag) Time Alt. Az. Time Alt. Az. Time Alt. Az.
22 Dec - 13:34:15 10° S 13:37:00 24° SE 13:39:45 10° ENE daylight
22 Dec - 15:10:20 10° W 15:13:27 37° NNW 15:16:34 10° NE daylight
22 Dec - 16:49:04 10° NW 16:50:45 13° N 16:52:25 10° NNE daylight
22 Dec - 18:26:51 10° NNW 18:28:26 13° N 18:30:01 10° NE daylight
22 Dec - 20:02:43 10° NW 20:05:46 35° NNE 20:08:48 10° E visible
22 Dec - 21:39:27 10° WNW 21:42:15 26° SW 21:45:02 10° SSE night (unlit)
23 Dec - 12:44:42 10° SSE 12:46:22 13° SE 12:48:02 10° E daylight
23 Dec - 14:19:17 10° WSW 14:22:34 65° NW 14:25:51 10° NE daylight
23 Dec - 15:57:30 10° WNW 15:59:39 16° NNW 16:01:47 10° NNE daylight
23 Dec - 17:36:04 10° NNW 17:37:18 12° N 17:38:31 10° NNE daylight
23 Dec - 19:12:04 10° NNW 19:14:48 23° NNE 19:17:30 10° E visible
23 Dec - 20:48:20 10° WNW 20:51:32 51° SW 20:54:42 10° SE visible
24 Dec - 13:28:26 10° SW 13:31:43 67° SE 13:35:00 10° ENE daylight
24 Dec - 15:05:57 10° WNW 15:08:33 21° NNW 15:11:09 10° NNE daylight
24 Dec - 16:44:55 10° NNW 16:46:06 11° N 16:47:16 10° NNE daylight
24 Dec - 18:21:25 10° NNW 18:23:43 17° NNE 18:26:00 10° ENE daylight
24 Dec - 19:57:25 10° NW 20:00:42 82° NE 20:03:58 10° SE visible
24 Dec - 21:36:33 10° WSW 21:36:47 10° SW 21:37:02 10° SW visible
25 Dec - 12:37:52 10° SSW 12:40:53 34° SE 12:43:55 10° ENE daylight
25 Dec - 14:14:31 10° W 14:17:28 30° NNW 14:20:26 10° NE daylight
25 Dec - 15:53:24 10° NW 15:54:52 12° N 15:56:19 10° NNE daylight
25 Dec - 17:30:42 10° NNW 17:32:32 14° NNE 17:34:22 10° NE daylight
25 Dec - 19:06:35 10° NW 19:09:45 45° NNE 19:12:55 10° ESE visible
25 Dec - 20:43:41 10° W 20:46:06 19° SW 20:48:30 10° S visible
26 Dec - 11:47:45 10° S 11:50:06 18° SE 11:52:28 10° E daylight
26 Dec - 13:23:13 10° WSW 13:26:26 48° NNW 13:29:39 10° NE daylight
26 Dec - 15:01:43 10° NW 15:03:37 14° NNW 15:05:31 10° NNE daylight
26 Dec - 16:39:53 10° NNW 16:41:17 12° N 16:42:41 10° NNE daylight
26 Dec - 18:15:47 10° NW 18:18:42 28° NNE 18:21:35 10° E daylight
26 Dec - 19:52:15 10° WNW 19:55:18 36° SW 19:58:19 10° SSE visible
27 Dec - 12:32:06 10° SW 12:35:25 88° NW 12:38:44 10° NE daylight
27 Dec - 14:10:00 10° WNW 14:12:22 18° NNW 14:14:45 10° NNE daylight
27 Dec - 15:48:48 10° NNW 15:49:58 11° N 15:51:08 10° NNE daylight
27 Dec - 17:24:59 10° NNW 17:27:31 20° NNE 17:30:03 10° ENE daylight
27 Dec - 19:01:06 10° WNW 19:04:23 72° SW 19:07:38 10° SE visible
28 Dec - 11:41:14 10° SSW 11:44:26 47° SE 11:47:38 10° ENE daylight
28 Dec - 13:18:21 10° W 13:21:08 25° NNW 13:23:56 10° NNE daylight
28 Dec - 14:57:19 10° NNW 14:58:36 12° N 14:59:53 10° NNE daylight
28 Dec - 16:34:10 10° NNW 16:36:15 16° NNE 16:38:19 10° NE daylight
28 Dec - 18:10:05 10° NW 18:13:21 60° NE 18:16:35 10° ESE daylight
28 Dec - 19:47:45 10° W 19:49:33 14° SW 19:51:20 10° SSW visible
29 Dec - 10:50:43 10° S 10:53:29 25° SE 10:56:15 10° ENE daylight
29 Dec - 12:26:49 10° W 12:29:56 37° NNW 12:33:03 10° NE daylight
29 Dec - 14:05:32 10° NW 14:07:13 13° N 14:08:53 10° NNE daylight
29 Dec - 15:43:16 10° NNW 15:44:53 13° N 15:46:30 10° NE daylight
29 Dec - 17:19:08 10° NW 17:22:12 35° NNE 17:25:15 10° E daylight
29 Dec - 18:55:52 10° WNW 18:58:40 26° SW 19:01:26 10° SSE visible
30 Dec - 10:00:53 10° SSE 10:02:34 13° SE 10:04:16 10° E daylight
30 Dec - 11:35:28 10° WSW 11:38:45 65° NW 11:42:03 10° NE daylight
30 Dec - 13:13:40 10° WNW 13:15:49 16° NNW 13:17:58 10° NNE daylight
30 Dec - 14:52:12 10° NNW 14:53:27 12° N 14:54:42 10° NNE daylight
30 Dec - 16:28:12 10° NNW 16:30:56 24° NNE 16:33:39 10° E daylight
30 Dec - 18:04:27 10° WNW 18:07:39 50° SW 18:10:50 10° SE daylight
31 Dec - 10:44:20 10° SW 10:47:37 67° SE 10:50:54 10° ENE daylight
31 Dec - 12:21:50 10° WNW 12:24:26 21° NNW 12:27:02 10° NNE daylight
31 Dec - 14:00:47 10° NNW 14:01:58 11° N 14:03:09 10° NNE daylight
31 Dec - 15:37:15 10° NNW 15:39:34 17° NNE 15:41:52 10° ENE daylight
31 Dec - 17:13:14 10° NW 17:16:32 82° NE 17:19:48 10° SE daylight
31 Dec - 18:52:18 10° WSW 18:52:36 10° SW 18:52:54 10° SW visible
